Powrót do katalogu

DELTA 1 DEB

AktywnySSO
NORAD 7138·DEBRIS·🇺🇸 United States

Wystrzelony Nov 6, 1973 z Vandenberg Space Force Base

Loading…

Następne Przeloty (najbliższe 24 godziny)

TLE

ŚwieżeSource: Space-Track

Epoka: Sep 14, 2026, 14:35 UTC

1 07138U 73086DC  26257.60782166 -.00000029  00000-0  12226-3 0  9999
2 07138 102.0772 199.0860 0053414 148.9389  23.6940 12.31900254376874

Śledź DELTA 1 DEB w czasie rzeczywistym z AllMySat

Download on the App Store